Location: Newark
(33.9035°S, 18.4112°E)
Time: 09:47:36
(UTC+00:00)

STARLINK-1100 - Pass Details

Date: 22 January 2020
Orbit: 348 x 351 km, 53.0° (Epoch: 18 February)

Event Time Altitude Azimuth Distance (km) Brightness Sun altitude
Exits shadow 01:48:05 27° 95° (E) 720 4.7 -22.7°
Drops below altitude 10° 01:49:52 10° 119° (ESE) 1,338 6.6 -22.4°
Sets 01:51:58 0° 127° (SE) 2,189 8.2 -22.1°
